Location: Newark
(52.3735°N, 16.9806°E)
Time: 06:42:41
(UTC+00:00)

Nauka - Pass Details

Date: 01 October 2021
Orbit: 417 x 423 km, 51.6° (Epoch: 23 October)

Event Time Altitude Azimuth Distance (km) Brightness Sun altitude
Rises 18:16:19 0° 282° (WNW) 2,366 ? -17.0°
Reaches altitude 10° 18:18:35 10° 270° (W) 1,501 ? -17.4°
Maximum altitude 18:21:30 28° 210° (SSW) 829 ? -17.8°
Enters shadow 18:22:27 24° 180° (S) 923 ? -17.9°
